Pittsfield, IL

8:01 PM CDT on June 26, 2017 (GMT -0500)
Pittsfield Penstone Municipal

Weather History for KPPQ - February, 2014

Change the Weather History Date:

Thursday, February 13, 2014

  Actual Average (KUIN) Record (KUIN)
Temperature  
Mean Temperature 24 °F -  
Max Temperature 41 °F 37 °F 70 °F (1921)
Min Temperature 8 °F 21 °F -29 °F (1905)
Degree Days  
Heating Degree Days 40    
Moisture  
Dew Point 19 °F    
Average Humidity 69    
Maximum Humidity 85    
Minimum Humidity 53    
Precipitation  
Precipitation 0.00 in - - ()
Sea Level Pressure  
Sea Level Pressure 29.81 in    
Wind  
Wind Speed 7 mph (SW)    
Max Wind Speed 20 mph    
Max Gust Speed 25 mph    
Visibility 10 miles    
Events      
Averages and records for this station are not official NWS values.
T = Trace of Precipitation, MM = Missing Value Source: NWS Daily Summary

Daily Weather History Graph

Daily Weather History Graph

Search for Another Location

Airport or City:

Trip Planner

Search our weather history database for the weather conditions in past years. The results will help you decide how hot, cold, wet, or windy it might be!

Date:

Astronomy

Feb. 13, 2014 Rise Set
Actual Time 6:57 AM CST 5:37 PM CST
Civil Twilight 6:30 AM CST 6:05 PM CST
Nautical Twilight 5:58 AM CST 6:36 PM CST
Astronomical Twilight 5:27 AM CST 7:07 PM CST
Moon 4:45 PM CST (2/13) 5:51 AM CST (2/13)
Length of Visible Light 11h 34m
Length of Day
10h 39m
Waxing Gibbous, 99% of the Moon is Illuminated
Feb 13
Waxing Gibbous
Feb 14
Full
Feb 22
Last Quarter
Mar 1
New
Mar 8
First Quarter

Hourly Weather History & Observations

Time (CST) Temp. Windchill Dew Point Humidity Pressure Visibility Wind Dir Wind Speed Gust Speed Precip Events Conditions
12:35 AM 11.5 °F 2.1 °F 6.3 °F 80% 30.00 in 10.0 mi ESE 5.8 mph - N/A   Clear
12:55 AM 11.1 °F 3.1 °F 6.1 °F 80% 29.99 in 10.0 mi ESE 4.6 mph - N/A   Clear
1:15 AM 11.1 °F 4.9 °F 4.8 °F 76% 29.98 in 10.0 mi SSE 3.5 mph - N/A   Clear
1:35 AM 8.4 °F - 2.8 °F 78% 29.98 in 10.0 mi Calm Calm - N/A   Clear
1:55 AM 10.6 °F 2.5 °F 5.5 °F 80% 29.98 in 10.0 mi SSE 4.6 mph - N/A   Clear
2:15 AM 11.5 °F 3.5 °F 5.7 °F 78% 29.97 in 10.0 mi SSE 4.6 mph - N/A   Clear
2:35 AM 12.4 °F 4.6 °F 6.8 °F 78% 29.97 in 10.0 mi SSE 4.6 mph - N/A   Clear
2:55 AM 12.2 °F 6.1 °F 6.4 °F 78% 29.97 in 10.0 mi South 3.5 mph - N/A   Clear
3:15 AM 9.7 °F - 3.6 °F 76% 29.97 in 10.0 mi Calm Calm - N/A   Clear
3:35 AM 9.7 °F -1.3 °F 4.6 °F 80% 29.94 in 10.0 mi SSE 6.9 mph - N/A   Clear
3:55 AM 8.8 °F -2.4 °F 3.6 °F 79% 29.93 in 10.0 mi SSE 6.9 mph - N/A   Clear
4:15 AM 14.2 °F 5.3 °F 7.3 °F 74% 29.92 in 10.0 mi SSE 5.8 mph - N/A   Clear
4:35 AM 14.2 °F 6.7 °F 7.9 °F 76% 29.92 in 10.0 mi South 4.6 mph - N/A   Clear
4:55 AM 15.6 °F - 8.6 °F 74% 29.93 in 10.0 mi Calm Calm - N/A   Clear
5:15 AM 16.0 °F 8.8 °F 8.8 °F 73% 29.93 in 10.0 mi SW 4.6 mph - N/A   Clear
5:35 AM 15.3 °F - 7.9 °F 73% 29.92 in 10.0 mi Calm Calm - N/A   Clear
5:55 AM 17.8 °F 7.5 °F 9.9 °F 71% 29.91 in 10.0 mi SSW 8.1 mph - N/A   Clear
6:15 AM 20.1 °F 8.8 °F 11.1 °F 68% 29.89 in 10.0 mi South 10.4 mph - N/A   Clear
6:35 AM 20.5 °F 10.0 °F 11.1 °F 67% 29.88 in 10.0 mi South 9.2 mph - N/A   Clear
6:55 AM 19.2 °F 11.3 °F 10.8 °F 70% 29.90 in 10.0 mi SSW 5.8 mph - N/A   Clear
7:15 AM 18.9 °F 10.8 °F 10.4 °F 70% 29.90 in 10.0 mi SSW 5.8 mph - N/A   Clear
7:35 AM 19.6 °F 9.7 °F 10.8 °F 69% 29.88 in 10.0 mi South 8.1 mph - N/A   Clear
7:55 AM 20.8 °F 10.4 °F 11.1 °F 66% 29.88 in 10.0 mi South 9.2 mph - N/A   Clear
8:15 AM 21.2 °F 13.6 °F 11.1 °F 65% 29.89 in 10.0 mi SSW 5.8 mph - N/A   Clear
8:35 AM 22.3 °F 13.0 °F 11.7 °F 64% 29.87 in 10.0 mi South 8.1 mph - N/A   Clear
8:55 AM 23.5 °F 16.4 °F 11.3 °F 60% 29.88 in 10.0 mi SW 5.8 mph - N/A   Clear
9:15 AM 25.5 °F 16.2 °F 11.7 °F 56% 29.85 in 10.0 mi South 9.2 mph - N/A   Clear
9:35 AM 26.6 °F 16.8 °F 12.6 °F 55% 29.85 in 10.0 mi SSW 10.4 mph - N/A   Clear
9:55 AM 28.9 °F 19.8 °F 13.8 °F 53% 29.84 in 10.0 mi SSW 10.4 mph - N/A   Clear
10:15 AM 31.3 °F 22.7 °F 16.5 °F 54% 29.84 in 10.0 mi SW 10.4 mph - N/A   Scattered Clouds
10:35 AM 32.0 °F 24.2 °F 19.4 °F 60% 29.83 in 10.0 mi SSW 9.2 mph 16.1 mph N/A   Scattered Clouds
10:55 AM 32.9 °F 25.3 °F 20.1 °F 59% 29.82 in 10.0 mi SSW 9.2 mph - N/A   Clear
11:15 AM 34.3 °F 24.2 °F 23.5 °F 65% 29.81 in 10.0 mi SW 16.1 mph - N/A   Clear
11:35 AM 35.2 °F 27.1 °F 24.6 °F 65% 29.82 in 10.0 mi WSW 11.5 mph 17.3 mph N/A   Clear
11:55 AM 35.8 °F 27.3 °F 25.3 °F 66% 29.79 in 10.0 mi SW 12.7 mph - N/A   Scattered Clouds
12:15 PM 36.9 °F 28.2 °F 25.9 °F 64% 29.76 in 10.0 mi SSW 13.8 mph 19.6 mph N/A   Scattered Clouds
12:35 PM 37.8 °F 29.0 °F 26.4 °F 64% 29.74 in 10.0 mi SW 15.0 mph 18.4 mph N/A   Scattered Clouds
12:55 PM 38.8 °F 29.4 °F 26.2 °F 61% 29.73 in 10.0 mi WSW 18.4 mph 23.0 mph N/A   Clear
1:35 PM 39.2 °F 30.8 °F 26.8 °F 61% 29.71 in 10.0 mi WSW 15.0 mph 21.9 mph N/A   Clear
1:55 PM 39.6 °F 30.3 °F 27.3 °F 62% 29.69 in 10.0 mi WSW 18.4 mph 24.2 mph N/A   Clear
2:15 PM 39.9 °F 31.4 °F 27.5 °F 61% 29.69 in 10.0 mi WSW 16.1 mph 25.3 mph N/A   Clear
2:35 PM 40.3 °F 31.0 °F 28.2 °F 62% 29.69 in 10.0 mi WSW 19.6 mph 24.2 mph N/A   Clear
2:55 PM 41.0 °F 33.5 °F 28.2 °F 60% 29.69 in 10.0 mi WSW 13.8 mph - N/A   Clear
3:15 PM 41.2 °F 34.1 °F 28.4 °F 60% 29.68 in 10.0 mi WSW 12.7 mph - N/A   Clear
3:35 PM 41.4 °F 34.3 °F 28.6 °F 60% 29.68 in 10.0 mi WSW 12.7 mph 17.3 mph N/A   Clear
3:55 PM 41.4 °F 34.3 °F 29.3 °F 62% 29.68 in 10.0 mi WSW 12.7 mph 18.4 mph N/A   Clear
4:15 PM 41.2 °F 34.5 °F 29.1 °F 62% 29.68 in 10.0 mi WSW 11.5 mph 19.6 mph N/A   Clear
4:35 PM 41.0 °F 33.5 °F 29.3 °F 63% 29.68 in 10.0 mi WSW 13.8 mph 18.4 mph N/A   Clear
4:55 PM 40.6 °F 33.8 °F 29.3 °F 64% 29.69 in 10.0 mi WSW 11.5 mph 16.1 mph N/A   Clear
5:15 PM 40.3 °F 33.4 °F 29.5 °F 65% 29.70 in 10.0 mi WSW 11.5 mph - N/A   Clear
5:35 PM 39.9 °F 33.4 °F 29.7 °F 67% 29.70 in 10.0 mi WSW 10.4 mph - N/A   Clear
5:55 PM 39.2 °F 33.6 °F 29.7 °F 69% 29.71 in 10.0 mi WSW 8.1 mph - N/A   Clear
6:15 PM 38.8 °F 33.8 °F 29.7 °F 70% 29.71 in 10.0 mi WSW 6.9 mph - N/A   Clear
6:55 PM 38.1 °F 32.3 °F 29.8 °F 72% 29.71 in 10.0 mi WSW 8.1 mph - N/A   Clear
7:15 PM 37.8 °F 30.7 °F 29.8 °F 73% 29.71 in 10.0 mi WSW 10.4 mph - N/A   Clear
7:55 PM 37.8 °F 31.8 °F 29.8 °F 73% 29.71 in 10.0 mi WSW 8.1 mph - N/A   Clear
8:15 PM 37.8 °F 31.8 °F 29.7 °F 73% 29.72 in 10.0 mi WSW 8.1 mph - N/A   Clear
8:35 PM 37.2 °F 31.2 °F 29.7 °F 74% 29.73 in 10.0 mi WSW 8.1 mph - N/A   Clear
8:55 PM 36.9 °F 31.4 °F 29.5 °F 75% 29.73 in 10.0 mi West 6.9 mph - N/A   Clear
9:15 PM 37.0 °F 31.6 °F 29.5 °F 74% 29.73 in 10.0 mi West 6.9 mph - N/A   Clear
9:35 PM 36.7 °F 32.0 °F 29.3 °F 75% 29.74 in 10.0 mi West 5.8 mph - N/A   Clear
9:55 PM 36.9 °F 30.7 °F 29.3 °F 74% 29.74 in 10.0 mi West 8.1 mph - N/A   Clear
10:15 PM 36.3 °F 30.1 °F 29.3 °F 76% 29.75 in 10.0 mi West 8.1 mph - N/A   Clear
10:35 PM 35.8 °F 30.1 °F 29.3 °F 77% 29.75 in 10.0 mi West 6.9 mph - N/A   Clear
10:55 PM 35.1 °F 31.0 °F 28.9 °F 78% 29.75 in 10.0 mi WNW 4.6 mph - N/A   Clear
11:15 PM 34.5 °F 30.4 °F 28.8 °F 79% 29.75 in 10.0 mi WNW 4.6 mph - N/A   Clear
11:35 PM 31.6 °F 28.3 °F 26.8 °F 82% 29.75 in 7.0 mi NW 3.5 mph - N/A   Clear
11:55 PM 32.2 °F - 28.0 °F 85% 29.75 in 7.0 mi Calm Calm - N/A   Clear